Regional Weather Roundup
Issued by NWS Cleveland, OH

Home | Current Version | Previous Version | Text Only | Print | Product List | Glossary Off
Versions: 1 2 3 4 5 6 7 8 9 10 11 12 13 14 15 16 17 18 19 20 21 22 23 24 25 26 27 28 29 30 31 32 33 34 35 36 37 38 39 40 41 42 43 44 45 46 47 48 49 50

000
ASUS41 KCLE 180910
RWRCLE
OHIO REGIONAL WEATHER ROUNDUP
NATIONAL WEATHER SERVICE WILMINGTON, OH
400 AM EST WED JAN 18 2017

NOTE: "FAIR" INDICATES FEW OR NO CLOUDS BELOW 12,000 FEET WITH NO
SIGNIFICANT WEATHER AND/OR OBSTRUCTIONS TO VISIBILITY.

OHZ001>008-015>018-024>027-034-035-043-044-181000-
   NORTHWEST OHIO

CITY           SKY/WX    TMP DP  RH WIND       PRES   REMARKS
DEFIANCE       CLOUDY    37  33  85 W9        30.03S
FINDLAY        CLOUDY    38  33  82 W17       30.02R
TOLEDO EXPRESS CLOUDY    35  35 100 W13       30.01R WCI  26
TOLEDO EXEC    CLOUDY    37  36  96 W13       30.01R
LIMA           CLOUDY    37  34  89 W15       30.03S
$$

OHZ009>014-019>023-028>033-038-089-181000-
   NORTHEAST OHIO

CITY           SKY/WX    TMP DP  RH WIND       PRES   REMARKS
CLE-HOPKINS    DRIZZLE   41  37  86 W15       30.00R FOG
CLE-LAKEFRONT  CLOUDY    37  36  96 W15       29.98R FOG
CUY CO. ARPT   NOT AVBL
LORAIN-ELYRIA  LGT RAIN  39  36  89 W8        29.99R FOG
ASHTABULA      CLOUDY    39  38  96 W13G22    29.95R FOG
AKRON-CANTON   LGT RAIN  44  40  85 W14G22    29.95R FOG
WOOSTER        CLOUDY    40  37  89 W18       29.98R
MANSFIELD      CLOUDY    38  37  97 W13G23    29.99R
YOUNGSTOWN     LGT RAIN  42  40  92 W13       29.93S FOG
$$

OHZ042-051>053-060>062-070>072-077>081-181000-
  SOUTHWEST OHIO

CITY           SKY/WX    TMP DP  RH WIND       PRES   REMARKS
CINC-COVINGTON DRIZZLE   41  38  89 W12       30.09R
CINC-LUNKEN    CLOUDY    43  40  89 W15       30.11R
HAMILTON       CLOUDY    41  39  93 W12G18    30.10R
DAYTON         CLOUDY    36  34  92 W14       30.07R
WRIGHT-PAT AFB MOCLDY    38  38  98 W9G22     30.07R
DAYTON GENERAL CLOUDY    39  37  92 W8        30.07R
WILMINGTON     CLOUDY    40  38  93 W14G22    30.05R
$$

OHZ036-037-039>041-045>050-054>059-063>069-073>076-082>088-181000-
  CENTRAL AND SOUTHEAST OHIO

CITY           SKY/WX    TMP DP  RH WIND       PRES   REMARKS
COLUMBUS       LGT RAIN  43  39  86 W12       30.03R
OSU AIRPORT    CLOUDY    39  38  96 NW14      30.04R FOG
BOLTON FIELD   CLOUDY    40  39  96 W7        30.05R FOG
RICKENBACK AFB LGT RAIN  41  41  98 NW16G22   30.04R
NEWARK         CLOUDY    43  39  86 W15       30.01R
MARION         CLOUDY    39  33  79 W13G21    30.03R
LANCASTER      LGT RAIN  44  41  89 W9        30.03R FOG
ZANESVILLE     NOT AVBL
NEW PHILLY     CLOUDY    44  42  93 VRB5      29.98S
$$




USA.gov is the U.S. government's official web portal to all federal, state and local government web resources and services.